| time (UTC) | temp F | wind direction | speed MPH | gust MPH | rain 1hr in | rain 24hr in | rain mn in | humidity % | barometer mb |
| 20260901192514 | 87 | 235 | 3.0 | 3.0 | 0.00 | 0.00 | 0.00 | 46 | 1016.7 |
| 20260901192011 | 87 | 205 | 0.0 | 6.0 | 0.00 | 0.00 | 0.00 | 47 | 1016.7 |
| 20260901191506 | 87 | 133 | 2.0 | 3.0 | 0.00 | 0.00 | 0.00 | 46 | 1016.7 |
| 20260901191002 | 87 | 195 | 2.0 | 5.0 | 0.00 | 0.00 | 0.00 | 45 | 1016.7 |
| 20260901190457 | 87 | 165 | 0.0 | 2.0 | 0.00 | 0.00 | 0.00 | 47 | 1016.5 |
| 20260901185955 | 88 | 138 | 1.0 | 6.0 | 0.00 | 0.00 | 0.00 | 46 | 1016.5 |
| 20260901185449 | 89 | 226 | 1.0 | 6.0 | 0.00 | 0.00 | 0.00 | 45 | 1016.4 |
| 20260901184949 | 89 | 173 | 1.0 | 2.0 | 0.00 | 0.00 | 0.00 | 46 | 1016.6 |
| 20260901184444 | 89 | 186 | 1.0 | 5.0 | 0.00 | 0.00 | 0.00 | 46 | 1016.5 |
| 20260901183939 | 88 | 194 | 4.0 | 6.0 | 0.00 | 0.00 | 0.00 | 47 | 1016.8 |
| 20260901183439 | 87 | 311 | 1.0 | 3.0 | 0.00 | 0.00 | 0.00 | 48 | 1016.8 |
| 20260901182935 | 87 | 177 | 4.0 | 5.0 | 0.00 | 0.00 | 0.00 | 46 | 1017.0 |
| 20260901182431 | 86 | 265 | 0.0 | 3.0 | 0.00 | 0.00 | 0.00 | 49 | 1016.8 |
| 20260901181925 | 86 | 138 | 0.0 | 1.0 | 0.00 | 0.00 | 0.00 | 50 | 1017.0 |
| 20260901181420 | 86 | 235 | 4.0 | 8.0 | 0.00 | 0.00 | 0.00 | 49 | 1017.0 |
| 20260901180919 | 86 | 248 | 2.0 | 5.0 | 0.00 | 0.00 | 0.00 | 51 | 1017.2 |
| 20260901180418 | 87 | 121 | 1.0 | 5.0 | 0.00 | 0.00 | 0.00 | 50 | 1017.2 |
| 20260901175917 | 86 | 181 | 3.0 | 3.0 | 0.00 | 0.00 | 0.00 | 50 | 1017.3 |
| 20260901175412 | 85 | 174 | 1.0 | 2.0 | 0.00 | 0.00 | 0.00 | 52 | 1017.5 |
| 20260901174907 | 86 | 163 | 1.0 | 1.0 | 0.00 | 0.00 | 0.00 | 52 | 1017.3 |
| 20260901174403 | 86 | 140 | 1.0 | 5.0 | 0.00 | 0.00 | 0.00 | 51 | 1017.5 |
| 20260901173858 | 86 | 173 | 1.0 | 2.0 | 0.00 | 0.00 | 0.00 | 52 | 1017.6 |
| 20260901173353 | 86 | 124 | 0.0 | 2.0 | 0.00 | 0.00 | 0.00 | 53 | 1017.4 |
| 20260901172849 | 86 | 165 | 2.0 | 5.0 | 0.00 | 0.00 | 0.00 | 52 | 1017.5 |
| 20260901172349 | 85 | 134 | 1.0 | 5.0 | 0.00 | 0.00 | 0.00 | 53 | 1017.6 |
| 20260901171847 | 86 | 160 | 3.0 | 6.0 | 0.00 | 0.00 | 0.00 | 52 | 1017.8 |
| 20260901171346 | 85 | 230 | 1.0 | 3.0 | 0.00 | 0.00 | 0.00 | 52 | 1017.5 |
| 20260901170845 | 85 | 211 | 3.0 | 3.0 | 0.00 | 0.00 | 0.00 | 52 | 1017.6 |
| 20260901170340 | 85 | 195 | 3.0 | 6.0 | 0.00 | 0.00 | 0.00 | 54 | 1017.7 |
| 20260901165834 | 85 | 196 | 4.0 | 5.0 | 0.00 | 0.00 | 0.00 | 55 | 1017.6 |
| 20260901165328 | 85 | 237 | 2.0 | 3.0 | 0.00 | 0.00 | 0.00 | 55 | 1017.7 |
| 20260901164825 | 85 | 226 | 2.0 | 3.0 | 0.00 | 0.00 | 0.00 | 56 | 1017.6 |
| 20260901164320 | 85 | 121 | 0.0 | 2.0 | 0.00 | 0.00 | 0.00 | 57 | 1017.5 |
| 20260901163814 | 84 | 208 | 1.0 | 2.0 | 0.00 | 0.00 | 0.00 | 56 | 1017.6 |
| 20260901163309 | 84 | 112 | 1.0 | 2.0 | 0.00 | 0.00 | 0.00 | 58 | 1017.9 |
| 20260901162803 | 84 | 175 | 1.0 | 2.0 | 0.00 | 0.00 | 0.00 | 58 | 1017.7 |
| 20260901162306 | 84 | 170 | 0.0 | 1.0 | 0.00 | 0.00 | 0.00 | 58 | 1017.5 |
| 20260901161802 | 82 | 114 | 0.0 | 2.0 | 0.00 | 0.00 | 0.00 | 60 | 1017.4 |
| 20260901161256 | 83 | 202 | 1.0 | 3.0 | 0.00 | 0.00 | 0.00 | 58 | 1017.3 |
| 20260901160752 | 82 | 136 | 0.0 | 1.0 | 0.00 | 0.00 | 0.00 | 61 | 1017.5 |
| 20260901160248 | 81 | 103 | 0.0 | 2.0 | 0.00 | 0.00 | 0.00 | 63 | 1017.5 |
| 20260901155747 | 80 | 191 | 3.0 | 5.0 | 0.00 | 0.00 | 0.00 | 63 | 1017.7 |
| 20260901155242 | 80 | 153 | 1.0 | 1.0 | 0.00 | 0.00 | 0.00 | 65 | 1017.5 |
| 20260901154738 | 80 | 156 | 1.0 | 2.0 | 0.00 | 0.00 | 0.00 | 64 | 1017.6 |
| 20260901154232 | 79 | 241 | 3.0 | 5.0 | 0.00 | 0.00 | 0.00 | 64 | 1017.8 |
| 20260901153728 | 79 | 202 | 4.0 | 6.0 | 0.00 | 0.00 | 0.00 | 64 | 1017.8 |
| 20260901153227 | 79 | 117 | 3.0 | 3.0 | 0.00 | 0.00 | 0.00 | 64 | 1017.7 |
| 20260901152721 | 79 | 166 | 2.0 | 5.0 | 0.00 | 0.00 | 0.00 | 65 | 1017.8 |
| 20260901152220 | 78 | 32 | 1.0 | 2.0 | 0.00 | 0.00 | 0.00 | 65 | 1017.8 |
| 20260901151715 | 78 | 220 | 2.0 | 3.0 | 0.00 | 0.00 | 0.00 | 66 | 1017.9 |
| 20260901151215 | 78 | 137 | 1.0 | 3.0 | 0.00 | 0.00 | 0.00 | 67 | 1017.7 |
| 20260901150709 | 77 | 150 | 2.0 | 3.0 | 0.00 | 0.00 | 0.00 | 69 | 1017.8 |
| 20260901150207 | 77 | 119 | 0.0 | 3.0 | 0.00 | 0.00 | 0.00 | 73 | 1017.9 |
| 20260901145705 | 77 | 150 | 1.0 | 2.0 | 0.00 | 0.00 | 0.00 | 74 | 1017.9 |
| 20260901145200 | 76 | 197 | 2.0 | 3.0 | 0.00 | 0.00 | 0.00 | 73 | 1017.7 |
| 20260901144655 | 76 | 198 | 1.0 | 2.0 | 0.00 | 0.00 | 0.00 | 74 | 1018.0 |
| 20260901144150 | 75 | 168 | 2.0 | 3.0 | 0.00 | 0.00 | 0.00 | 75 | 1018.0 |
| 20260901143645 | 75 | 251 | 3.0 | 3.0 | 0.00 | 0.00 | 0.00 | 75 | 1017.9 |
| 20260901143142 | 75 | 288 | 1.0 | 5.0 | 0.00 | 0.00 | 0.00 | 75 | 1017.9 |
| 20260901142638 | 75 | 236 | 3.0 | 5.0 | 0.00 | 0.00 | 0.00 | 77 | 1018.0 |
| 20260901142137 | 75 | 168 | 3.0 | 5.0 | 0.00 | 0.00 | 0.00 | 77 | 1017.9 |
| 20260901141632 | 75 | 173 | 1.0 | 3.0 | 0.00 | 0.00 | 0.00 | 78 | 1018.1 |
| 20260901141131 | 75 | 159 | 1.0 | 2.0 | 0.00 | 0.00 | 0.00 | 80 | 1018.0 |
| 20260901140630 | 74 | 210 | 2.0 | 3.0 | 0.00 | 0.00 | 0.00 | 79 | 1018.1 |
| 20260901140129 | 74 | 107 | 0.0 | 3.0 | 0.00 | 0.00 | 0.00 | 80 | 1017.9 |
| 20260901135624 | 73 | 99 | 1.0 | 1.0 | 0.00 | 0.00 | 0.00 | 82 | 1018.0 |
| 20260901135119 | 73 | 116 | 1.0 | 2.0 | 0.00 | 0.00 | 0.00 | 83 | 1017.9 |
| 20260901134615 | 72 | 133 | 1.0 | 2.0 | 0.00 | 0.00 | 0.00 | 84 | 1018.1 |
| 20260901134110 | 72 | 130 | 0.0 | 2.0 | 0.00 | 0.00 | 0.00 | 85 | 1018.0 |
| 20260901133609 | 71 | 171 | 1.0 | 2.0 | 0.00 | 0.00 | 0.00 | 86 | 1018.0 |
| 20260901133108 | 71 | 214 | 0.0 | 2.0 | 0.00 | 0.00 | 0.00 | 88 | 1018.0 |
| 20260901132603 | 71 | 188 | 0.0 | 1.0 | 0.00 | 0.00 | 0.00 | 88 | 1017.9 |
| 20260901132057 | 71 | 222 | 1.0 | 2.0 | 0.00 | 0.00 | 0.00 | 87 | 1017.9 |
| 20260901131556 | 70 | 196 | 0.0 | 2.0 | 0.00 | 0.00 | 0.00 | 88 | 1018.0 |
| 20260901131051 | 69 | 233 | 3.0 | 3.0 | 0.00 | 0.00 | 0.00 | 90 | 1017.9 |
| 20260901130546 | 68 | 245 | 1.0 | 1.0 | 0.00 | 0.00 | 0.00 | 93 | 1017.8 |
| 20260901130044 | 68 | 198 | 0.0 | 0.0 | 0.00 | 0.00 | 0.00 | 94 | 1017.7 |
| 20260901125543 | 67 | 205 | 0.0 | 0.0 | 0.00 | 0.00 | 0.00 | 95 | 1017.9 |
| 20260901125039 | 67 | 218 | 0.0 | 0.0 | 0.00 | 0.00 | 0.00 | 95 | 1017.9 |
| 20260901124538 | 67 | 211 | 0.0 | 1.0 | 0.00 | 0.00 | 0.00 | 96 | 1017.9 |
| 20260901124033 | 67 | 204 | 0.0 | 0.0 | 0.00 | 0.00 | 0.00 | 96 | 1017.7 |
| 20260901123528 | 66 | 219 | 1.0 | 1.0 | 0.00 | 0.00 | 0.00 | 96 | 1017.8 |
| 20260901123028 | 66 | 188 | 0.0 | 1.0 | 0.00 | 0.00 | 0.00 | 97 | 1017.7 |
| 20260901122526 | 66 | 194 | 0.0 | 2.0 | 0.00 | 0.00 | 0.00 | 97 | 1017.6 |
| 20260901122025 | 66 | 197 | 0.0 | 1.0 | 0.00 | 0.00 | 0.00 | 97 | 1017.6 |
| 20260901121520 | 65 | 248 | 0.0 | 0.0 | 0.00 | 0.00 | 0.00 | 97 | 1017.7 |
| 20260901121016 | 66 | 204 | 0.0 | 1.0 | 0.00 | 0.00 | 0.00 | 97 | 1017.5 |
| 20260901120515 | 66 | 221 | 0.0 | 0.0 | 0.00 | 0.00 | 0.00 | 97 | 1017.6 |
| 20260901120011 | 65 | 194 | 0.0 | 0.0 | 0.00 | 0.00 | 0.00 | 97 | 1017.4 |
| 20260901115506 | 66 | 214 | 1.0 | 1.0 | 0.00 | 0.00 | 0.00 | 97 | 1017.5 |
| 20260901115003 | 65 | 230 | 0.0 | 1.0 | 0.00 | 0.00 | 0.00 | 97 | 1017.4 |
| 20260901114459 | 65 | 244 | 1.0 | 1.0 | 0.00 | 0.00 | 0.00 | 97 | 1017.3 |
| 20260901113956 | 65 | 226 | 0.0 | 0.0 | 0.00 | 0.00 | 0.00 | 97 | 1017.3 |
| 20260901113456 | 65 | 214 | 0.0 | 0.0 | 0.00 | 0.00 | 0.00 | 96 | 1017.1 |
| 20260901112951 | 65 | 213 | 0.0 | 0.0 | 0.00 | 0.00 | 0.00 | 96 | 1016.9 |
| 20260901112446 | 65 | 264 | 0.0 | 1.0 | 0.00 | 0.00 | 0.00 | 96 | 1016.9 |
| 20260901111941 | 65 | 192 | 0.0 | 0.0 | 0.00 | 0.00 | 0.00 | 96 | 1016.9 |
| 20260901111440 | 66 | 170 | 1.0 | 1.0 | 0.00 | 0.00 | 0.00 | 96 | 1017.0 |
| 20260901110938 | 66 | 212 | 0.0 | 0.0 | 0.00 | 0.00 | 0.00 | 96 | 1016.6 |
| 20260901110434 | 66 | 206 | 0.0 | 0.0 | 0.00 | 0.00 | 0.00 | 97 | 1016.8 |
| 20260901105931 | 65 | 208 | 0.0 | 0.0 | 0.00 | 0.00 | 0.00 | 97 | 1016.6 |
| 20260901105426 | 65 | 197 | 0.0 | 0.0 | 0.00 | 0.00 | 0.00 | 97 | 1016.4 |
| 20260901104921 | 65 | 196 | 0.0 | 0.0 | 0.00 | 0.00 | 0.00 | 97 | 1016.6 |
| 20260901104416 | 65 | 212 | 0.0 | 0.0 | 0.00 | 0.00 | 0.00 | 96 | 1016.5 |
| 20260901103912 | 65 | 219 | 0.0 | 0.0 | 0.00 | 0.00 | 0.00 | 96 | 1016.4 |
| 20260901103412 | 66 | 227 | 0.0 | 0.0 | 0.00 | 0.00 | 0.00 | 96 | 1016.4 |
| 20260901102907 | 66 | 236 | 0.0 | 0.0 | 0.00 | 0.00 | 0.00 | 96 | 1016.4 |
| 20260901102401 | 66 | 250 | 0.0 | 0.0 | 0.00 | 0.00 | 0.00 | 96 | 1016.5 |
| 20260901101857 | 66 | 210 | 0.0 | 0.0 | 0.00 | 0.00 | 0.00 | 96 | 1016.7 |
| 20260901101357 | 66 | 222 | 0.0 | 0.0 | 0.00 | 0.00 | 0.00 | 97 | 1016.6 |
| 20260901100856 | 66 | 223 | 0.0 | 0.0 | 0.00 | 0.00 | 0.00 | 97 | 1016.7 |
| 20260901100351 | 66 | 221 | 0.0 | 0.0 | 0.00 | 0.00 | 0.00 | 97 | 1016.7 |
| 20260901095845 | 66 | 215 | 0.0 | 0.0 | 0.00 | 0.00 | 0.00 | 97 | 1016.5 |
| 20260901095342 | 66 | 188 | 0.0 | 0.0 | 0.00 | 0.00 | 0.00 | 97 | 1016.5 |
| 20260901094836 | 66 | 206 | 0.0 | 0.0 | 0.00 | 0.00 | 0.00 | 97 | 1016.4 |
| 20260901094331 | 66 | 231 | 0.0 | 0.0 | 0.00 | 0.00 | 0.00 | 97 | 1016.6 |
| 20260901093826 | 66 | 238 | 0.0 | 0.0 | 0.00 | 0.00 | 0.00 | 97 | 1016.5 |
| 20260901093325 | 65 | 252 | 0.0 | 0.0 | 0.00 | 0.00 | 0.00 | 97 | 1016.6 |
| 20260901092821 | 65 | 254 | 0.0 | 0.0 | 0.00 | 0.00 | 0.00 | 96 | 1016.4 |
| 20260901092317 | 65 | 279 | 0.0 | 0.0 | 0.00 | 0.00 | 0.00 | 96 | 1016.2 |
| 20260901091813 | 66 | 247 | 0.0 | 0.0 | 0.00 | 0.00 | 0.00 | 96 | 1016.5 |
| 20260901091312 | 66 | 248 | 0.0 | 0.0 | 0.00 | 0.00 | 0.00 | 96 | 1016.2 |
| 20260901090808 | 66 | 235 | 0.0 | 0.0 | 0.00 | 0.00 | 0.00 | 96 | 1016.3 |
| 20260901090303 | 66 | 234 | 0.0 | 0.0 | 0.00 | 0.00 | 0.00 | 95 | 1016.6 |
| 20260901085759 | 66 | 246 | 0.0 | 0.0 | 0.00 | 0.00 | 0.00 | 95 | 1016.5 |
| 20260901085253 | 66 | 247 | 0.0 | 0.0 | 0.00 | 0.00 | 0.00 | 95 | 1016.5 |
| 20260901084750 | 66 | 247 | 0.0 | 0.0 | 0.00 | 0.00 | 0.00 | 95 | 1016.2 |
| 20260901084246 | 66 | 247 | 0.0 | 0.0 | 0.00 | 0.00 | 0.00 | 94 | 1016.4 |
| 20260901083746 | 66 | 247 | 0.0 | 0.0 | 0.00 | 0.00 | 0.00 | 94 | 1016.7 |
| 20260901083245 | 66 | 248 | 0.0 | 0.0 | 0.00 | 0.00 | 0.00 | 94 | 1016.4 |
| 20260901082744 | 67 | 254 | 0.0 | 0.0 | 0.00 | 0.00 | 0.00 | 94 | 1016.5 |
| 20260901082239 | 66 | 248 | 0.0 | 0.0 | 0.00 | 0.00 | 0.00 | 94 | 1016.4 |
| 20260901081735 | 67 | 245 | 0.0 | 0.0 | 0.00 | 0.00 | 0.00 | 94 | 1016.5 |
| 20260901081234 | 67 | 245 | 0.0 | 0.0 | 0.00 | 0.00 | 0.00 | 93 | 1016.4 |
| 20260901080730 | 67 | 246 | 0.0 | 0.0 | 0.00 | 0.00 | 0.00 | 93 | 1016.2 |
| 20260901080228 | 67 | 288 | 0.0 | 0.0 | 0.00 | 0.00 | 0.00 | 93 | 1016.5 |
| 20260901075723 | 67 | 242 | 0.0 | 0.0 | 0.00 | 0.00 | 0.00 | 93 | 1016.7 |
| 20260901075218 | 67 | 219 | 0.0 | 0.0 | 0.00 | 0.00 | 0.00 | 93 | 1016.6 |
| 20260901074712 | 67 | 228 | 0.0 | 0.0 | 0.00 | 0.00 | 0.00 | 92 | 1016.6 |
| 20260901074208 | 67 | 225 | 0.0 | 0.0 | 0.00 | 0.00 | 0.00 | 92 | 1016.5 |
| 20260901073704 | 68 | 228 | 0.0 | 0.0 | 0.00 | 0.00 | 0.00 | 92 | 1016.7 |
| 20260901073159 | 68 | 235 | 0.0 | 0.0 | 0.00 | 0.00 | 0.00 | 92 | 1016.8 |
| 20260901072654 | 68 | 239 | 0.0 | 0.0 | 0.00 | 0.00 | 0.00 | 92 | 1016.8 |
| 20260901072149 | 68 | 210 | 0.0 | 0.0 | 0.00 | 0.00 | 0.00 | 91 | 1016.8 |
| 20260901071648 | 67 | 208 | 0.0 | 0.0 | 0.00 | 0.00 | 0.00 | 91 | 1016.8 |
| 20260901071143 | 68 | 208 | 0.0 | 0.0 | 0.00 | 0.00 | 0.00 | 91 | 1016.7 |
| 20260901070637 | 68 | 215 | 0.0 | 0.0 | 0.00 | 0.00 | 0.00 | 91 | 1016.7 |
| 20260901070133 | 68 | 246 | 0.0 | 0.0 | 0.00 | 0.00 | 0.00 | 90 | 1016.7 |
| 20260901065632 | 68 | 248 | 0.0 | 0.0 | 0.00 | 0.00 | 0.00 | 91 | 1016.7 |
| 20260901065127 | 68 | 219 | 0.0 | 0.0 | 0.00 | 0.00 | 0.00 | 90 | 1016.8 |
| 20260901064624 | 68 | 219 | 0.0 | 0.0 | 0.00 | 0.00 | 0.00 | 90 | 1017.0 |
| 20260901064120 | 68 | 218 | 0.0 | 0.0 | 0.00 | 0.00 | 0.00 | 90 | 1016.9 |
| 20260901063616 | 68 | 218 | 0.0 | 0.0 | 0.00 | 0.00 | 0.00 | 89 | 1017.1 |
| 20260901063112 | 69 | 219 | 0.0 | 0.0 | 0.00 | 0.00 | 0.00 | 89 | 1017.1 |
| 20260901062608 | 69 | 203 | 0.0 | 0.0 | 0.00 | 0.00 | 0.00 | 88 | 1017.1 |
| 20260901062103 | 69 | 209 | 0.0 | 0.0 | 0.00 | 0.00 | 0.00 | 87 | 1017.2 |
| 20260901061600 | 69 | 209 | 0.0 | 0.0 | 0.00 | 0.00 | 0.00 | 86 | 1017.0 |
| 20260901061054 | 70 | 210 | 0.0 | 0.0 | 0.00 | 0.00 | 0.00 | 85 | 1017.0 |
| 20260901060549 | 71 | 217 | 0.0 | 0.0 | 0.00 | 0.00 | 0.00 | 84 | 1016.8 |
| 20260901060044 | 71 | 202 | 0.0 | 0.0 | 0.00 | 0.00 | 0.00 | 84 | 1016.9 |
| 20260901055539 | 71 | 195 | 0.0 | 0.0 | 0.00 | 0.00 | 0.00 | 84 | 1017.0 |
| 20260901055036 | 71 | 211 | 0.0 | 0.0 | 0.00 | 0.00 | 0.00 | 83 | 1016.7 |
| 20260901054533 | 71 | 202 | 0.0 | 0.0 | 0.00 | 0.00 | 0.00 | 83 | 1016.8 |
| 20260901054029 | 72 | 208 | 0.0 | 0.0 | 0.00 | 0.00 | 0.00 | 81 | 1016.7 |
| 20260901053525 | 72 | 219 | 1.0 | 1.0 | 0.00 | 0.00 | 0.00 | 81 | 1016.8 |
| 20260901053020 | 73 | 200 | 0.0 | 1.0 | 0.00 | 0.00 | 0.00 | 80 | 1016.4 |
| 20260901052520 | 73 | 218 | 1.0 | 2.0 | 0.00 | 0.00 | 0.00 | 80 | 1016.6 |
| 20260901052020 | 73 | 222 | 0.0 | 2.0 | 0.00 | 0.00 | 0.00 | 80 | 1016.5 |
| 20260901051515 | 73 | 223 | 0.0 | 1.0 | 0.00 | 0.00 | 0.00 | 80 | 1016.3 |
| 20260901051014 | 73 | 201 | 0.0 | 1.0 | 0.00 | 0.00 | 0.00 | 80 | 1016.3 |
| 20260901050509 | 73 | 208 | 0.0 | 1.0 | 0.00 | 0.00 | 0.00 | 80 | 1016.3 |
| 20260901050004 | 72 | 227 | 0.0 | 2.0 | 0.00 | 0.00 | 0.00 | 81 | 1016.1 |
| 20260901045459 | 71 | 267 | 0.0 | 0.0 | 0.00 | 0.00 | 0.00 | 83 | 1016.1 |
| 20260901044954 | 71 | 278 | 0.0 | 0.0 | 0.00 | 0.00 | 0.00 | 83 | 1016.2 |
| 20260901044450 | 70 | 273 | 0.0 | 0.0 | 0.00 | 0.00 | 0.00 | 84 | 1016.2 |
| 20260901043946 | 71 | 273 | 0.0 | 0.0 | 0.00 | 0.00 | 0.00 | 83 | 1016.0 |
| 20260901043442 | 70 | 299 | 1.0 | 1.0 | 0.00 | 0.00 | 0.00 | 84 | 1016.1 |
| 20260901042941 | 70 | 148 | 0.0 | 0.0 | 0.00 | 0.00 | 0.00 | 84 | 1016.1 |
| 20260901042436 | 70 | 207 | 0.0 | 0.0 | 0.00 | 0.00 | 0.00 | 83 | 1016.0 |
| 20260901041931 | 71 | 207 | 0.0 | 0.0 | 0.00 | 0.00 | 0.00 | 82 | 1016.1 |
| 20260901041426 | 71 | 208 | 0.0 | 0.0 | 0.00 | 0.00 | 0.00 | 82 | 1016.0 |
| 20260901040925 | 71 | 209 | 0.0 | 0.0 | 0.00 | 0.00 | 0.00 | 81 | 1016.1 |
| 20260901040420 | 71 | 201 | 0.0 | 0.0 | 0.00 | 0.00 | 0.00 | 80 | 1016.3 |
| 20260901035914 | 72 | 180 | 0.0 | 0.0 | 0.00 | 0.00 | 0.00 | 78 | 1016.1 |
| 20260901035413 | 72 | 180 | 0.0 | 0.0 | 0.00 | 0.00 | 0.00 | 78 | 1016.3 |
| 20260901034911 | 73 | 207 | 0.0 | 0.0 | 0.00 | 0.00 | 0.00 | 76 | 1016.2 |
| 20260901034406 | 73 | 218 | 0.0 | 0.0 | 0.00 | 0.00 | 0.00 | 75 | 1016.3 |
| 20260901033901 | 73 | 229 | 0.0 | 0.0 | 0.00 | 0.00 | 0.00 | 75 | 1016.5 |
| 20260901033401 | 72 | 225 | 0.0 | 0.0 | 0.00 | 0.00 | 0.00 | 75 | 1016.3 |
| 20260901032859 | 72 | 213 | 0.0 | 0.0 | 0.00 | 0.00 | 0.00 | 76 | 1016.2 |
| 20260901032358 | 72 | 226 | 0.0 | 0.0 | 0.00 | 0.00 | 0.00 | 75 | 1016.2 |
| 20260901031854 | 72 | 226 | 0.0 | 0.0 | 0.00 | 0.00 | 0.00 | 74 | 1016.2 |
| 20260901031350 | 73 | 226 | 0.0 | 0.0 | 0.00 | 0.00 | 0.00 | 73 | 1016.2 |
| 20260901030849 | 73 | 226 | 0.0 | 0.0 | 0.00 | 0.00 | 0.00 | 72 | 1016.0 |
| 20260901030345 | 74 | 226 | 0.0 | 0.0 | 0.00 | 0.00 | 0.00 | 72 | 1016.1 |
| 20260901025843 | 74 | 228 | 0.0 | 0.0 | 0.00 | 0.00 | 0.00 | 70 | 1016.2 |
| 20260901025338 | 75 | 243 | 0.0 | 0.0 | 0.00 | 0.00 | 0.00 | 69 | 1015.9 |
| 20260901024833 | 75 | 244 | 0.0 | 0.0 | 0.00 | 0.00 | 0.00 | 69 | 1015.9 |
| 20260901024332 | 75 | 229 | 0.0 | 0.0 | 0.00 | 0.00 | 0.00 | 69 | 1016.1 |
| 20260901023830 | 76 | 229 | 0.0 | 0.0 | 0.00 | 0.00 | 0.00 | 67 | 1015.8 |
| 20260901023326 | 77 | 244 | 0.0 | 0.0 | 0.00 | 0.00 | 0.00 | 65 | 1015.7 |
| 20260901022821 | 77 | 214 | 0.0 | 0.0 | 0.00 | 0.00 | 0.00 | 64 | 1015.7 |
| 20260901022317 | 76 | 212 | 0.0 | 2.0 | 0.00 | 0.00 | 0.00 | 64 | 1015.8 |
| 20260901021812 | 76 | 217 | 0.0 | 0.0 | 0.00 | 0.00 | 0.00 | 65 | 1015.9 |
| 20260901021308 | 76 | 202 | 0.0 | 0.0 | 0.00 | 0.00 | 0.00 | 65 | 1015.6 |
| 20260901020802 | 77 | 207 | 0.0 | 0.0 | 0.00 | 0.00 | 0.00 | 65 | 1015.7 |
| 20260901020257 | 77 | 190 | 0.0 | 0.0 | 0.00 | 0.00 | 0.00 | 65 | 1015.7 |
| 20260901015752 | 77 | 213 | 0.0 | 2.0 | 0.00 | 0.00 | 0.00 | 63 | 1015.7 |
| 20260901015248 | 78 | 207 | 0.0 | 0.0 | 0.00 | 0.00 | 0.00 | 63 | 1015.7 |
| 20260901014747 | 78 | 209 | 0.0 | 0.0 | 0.00 | 0.00 | 0.00 | 63 | 1015.5 |
| 20260901014243 | 77 | 239 | 1.0 | 1.0 | 0.00 | 0.00 | 0.00 | 64 | 1015.6 |
| 20260901013739 | 78 | 245 | 0.0 | 0.0 | 0.00 | 0.00 | 0.00 | 65 | 1015.2 |
| 20260901013234 | 78 | 289 | 0.0 | 0.0 | 0.00 | 0.00 | 0.00 | 64 | 1015.4 |
| 20260901012730 | 79 | 294 | 0.0 | 0.0 | 0.00 | 0.00 | 0.00 | 64 | 1015.1 |
| 20260901012229 | 79 | 267 | 0.0 | 0.0 | 0.00 | 0.00 | 0.00 | 62 | 1015.2 |
| 20260901011726 | 79 | 300 | 0.0 | 0.0 | 0.00 | 0.00 | 0.00 | 62 | 1014.9 |
| 20260901011220 | 79 | 278 | 0.0 | 0.0 | 0.00 | 0.00 | 0.00 | 62 | 1015.0 |
| 20260901010714 | 79 | 274 | 0.0 | 0.0 | 0.00 | 0.00 | 0.00 | 60 | 1015.1 |
| 20260901010209 | 80 | 243 | 0.0 | 0.0 | 0.00 | 0.00 | 0.00 | 58 | 1015.4 |
| 20260901005708 | 80 | 243 | 0.0 | 0.0 | 0.00 | 0.00 | 0.00 | 57 | 1015.0 |
| 20260901005204 | 80 | 254 | 0.0 | 0.0 | 0.00 | 0.00 | 0.00 | 58 | 1015.0 |
| 20260901004703 | 80 | 231 | 0.0 | 0.0 | 0.00 | 0.00 | 0.00 | 57 | 1014.9 |
| 20260901004157 | 80 | 231 | 0.0 | 0.0 | 0.00 | 0.00 | 0.00 | 57 | 1014.9 |
| 20260901003652 | 81 | 231 | 0.0 | 0.0 | 0.00 | 0.00 | 0.00 | 59 | 1015.1 |
| 20260901003151 | 81 | 219 | 0.0 | 0.0 | 0.00 | 0.00 | 0.00 | 58 | 1015.0 |
| 20260901002645 | 82 | 215 | 0.0 | 0.0 | 0.00 | 0.00 | 0.00 | 59 | 1015.0 |
| 20260901002140 | 83 | 216 | 0.0 | 0.0 | 0.00 | 0.00 | 0.00 | 58 | 1015.1 |
| 20260901001636 | 84 | 212 | 0.0 | 0.0 | 0.00 | 0.00 | 0.00 | 55 | 1014.9 |
| 20260901001131 | 85 | 213 | 0.0 | 0.0 | 0.00 | 0.00 | 0.00 | 55 | 1014.8 |
| 20260901000626 | 85 | 213 | 0.0 | 0.0 | 0.00 | 0.00 | 0.00 | 57 | 1014.9 |
| 20260901000121 | 85 | 222 | 0.0 | 0.0 | 0.00 | 0.00 | 0.00 | 56 | 1014.7 |
| 20260831235615 | 85 | 204 | 0.0 | 0.0 | 0.00 | 0.00 | 0.00 | 55 | 1014.8 |
| 20260831235111 | 86 | 230 | 0.0 | 0.0 | 0.00 | 0.00 | 0.00 | 55 | 1014.9 |
| 20260831234610 | 86 | 229 | 0.0 | 0.0 | 0.00 | 0.00 | 0.00 | 53 | 1014.7 |
| 20260831234106 | 86 | 230 | 0.0 | 0.0 | 0.00 | 0.00 | 0.00 | 53 | 1014.8 |
| 20260831233601 | 87 | 7 | 1.0 | 1.0 | 0.00 | 0.00 | 0.00 | 50 | 1014.6 |
| 20260831233056 | 87 | 205 | 0.0 | 1.0 | 0.00 | 0.00 | 0.00 | 49 | 1014.6 |
| 20260831232551 | 88 | 239 | 1.0 | 1.0 | 0.00 | 0.00 | 0.00 | 48 | 1014.6 |
| 20260831232047 | 88 | 186 | 0.0 | 2.0 | 0.00 | 0.00 | 0.00 | 47 | 1014.6 |
| 20260831231543 | 89 | 15 | 2.0 | 2.0 | 0.00 | 0.00 | 0.00 | 44 | 1014.6 |
| 20260831231039 | 89 | 320 | 1.0 | 1.0 | 0.00 | 0.00 | 0.00 | 43 | 1014.7 |
| 20260831230534 | 89 | 201 | 1.0 | 1.0 | 0.00 | 0.00 | 0.00 | 43 | 1014.7 |
| 20260831230034 | 89 | 232 | 1.0 | 2.0 | 0.00 | 0.00 | 0.00 | 44 | 1014.6 |
| 20260831225529 | 89 | 237 | 1.0 | 6.0 | 0.00 | 0.00 | 0.00 | 43 | 1014.6 |
| 20260831225024 | 89 | 194 | 1.0 | 2.0 | 0.00 | 0.00 | 0.00 | 43 | 1014.6 |
| 20260831224519 | 89 | 210 | 0.0 | 2.0 | 0.00 | 0.00 | 0.00 | 45 | 1014.6 |
| 20260831224014 | 88 | 212 | 0.0 | 2.0 | 0.00 | 0.00 | 0.00 | 47 | 1014.3 |
| 20260831223509 | 88 | 244 | 0.0 | 2.0 | 0.00 | 0.00 | 0.00 | 48 | 1014.5 |
| 20260831223006 | 88 | 233 | 1.0 | 1.0 | 0.00 | 0.00 | 0.00 | 49 | 1014.5 |
| 20260831222502 | 89 | 219 | 0.0 | 1.0 | 0.00 | 0.00 | 0.00 | 47 | 1014.5 |
| 20260831222001 | 89 | 249 | 1.0 | 2.0 | 0.00 | 0.00 | 0.00 | 45 | 1014.3 |
| 20260831221457 | 89 | 215 | 0.0 | 0.0 | 0.00 | 0.00 | 0.00 | 47 | 1014.2 |
| 20260831220952 | 90 | 354 | 2.0 | 3.0 | 0.00 | 0.00 | 0.00 | 43 | 1014.1 |
| 20260831220447 | 90 | 199 | 1.0 | 1.0 | 0.00 | 0.00 | 0.00 | 43 | 1014.5 |
| 20260831215942 | 90 | 219 | 1.0 | 3.0 | 0.00 | 0.00 | 0.00 | 42 | 1014.3 |
| 20260831215438 | 91 | 211 | 0.0 | 2.0 | 0.00 | 0.00 | 0.00 | 45 | 1014.3 |
| 20260831214934 | 90 | 214 | 1.0 | 1.0 | 0.00 | 0.00 | 0.00 | 46 | 1014.2 |
| 20260831214431 | 91 | 212 | 1.0 | 5.0 | 0.00 | 0.00 | 0.00 | 45 | 1014.2 |
| 20260831213927 | 91 | 207 | 1.0 | 3.0 | 0.00 | 0.00 | 0.00 | 48 | 1014.1 |
| 20260831213423 | 91 | 245 | 1.0 | 2.0 | 0.00 | 0.00 | 0.00 | 48 | 1014.1 |
| 20260831212923 | 91 | 237 | 1.0 | 2.0 | 0.00 | 0.00 | 0.00 | 48 | 1014.1 |
| 20260831212420 | 91 | 193 | 0.0 | 1.0 | 0.00 | 0.00 | 0.00 | 49 | 1014.0 |
| 20260831211919 | 90 | 255 | 4.0 | 5.0 | 0.00 | 0.00 | 0.00 | 50 | 1014.0 |
| 20260831211414 | 90 | 348 | 3.0 | 6.0 | 0.00 | 0.00 | 0.00 | 50 | 1013.8 |
| 20260831210908 | 91 | 274 | 2.0 | 3.0 | 0.00 | 0.00 | 0.00 | 49 | 1014.1 |
| 20260831210403 | 90 | 198 | 1.0 | 6.0 | 0.00 | 0.00 | 0.00 | 51 | 1014.1 |
| 20260831205859 | 91 | 130 | 2.0 | 5.0 | 0.00 | 0.00 | 0.00 | 50 | 1013.9 |
| 20260831205354 | 91 | 200 | 3.0 | 3.0 | 0.00 | 0.00 | 0.00 | 52 | 1014.2 |
| 20260831204849 | 90 | 186 | 1.0 | 2.0 | 0.00 | 0.00 | 0.00 | 51 | 1014.1 |
| 20260831204348 | 91 | 196 | 3.0 | 3.0 | 0.00 | 0.00 | 0.00 | 48 | 1014.2 |
| 20260831203848 | 91 | 157 | 1.0 | 5.0 | 0.00 | 0.00 | 0.00 | 50 | 1014.1 |
| 20260831203343 | 91 | 350 | 1.0 | 2.0 | 0.00 | 0.00 | 0.00 | 50 | 1014.2 |
| 20260831202841 | 91 | 60 | 2.0 | 3.0 | 0.00 | 0.00 | 0.00 | 50 | 1014.0 |
| 20260831202336 | 91 | 198 | 1.0 | 3.0 | 0.00 | 0.00 | 0.00 | 49 | 1014.2 |
| 20260831201836 | 90 | 202 | 1.0 | 5.0 | 0.00 | 0.00 | 0.00 | 50 | 1014.0 |
| 20260831201335 | 91 | 270 | 2.0 | 7.0 | 0.00 | 0.00 | 0.00 | 51 | 1014.2 |
| 20260831200831 | 90 | 193 | 1.0 | 5.0 | 0.00 | 0.00 | 0.00 | 53 | 1014.2 |
| 20260831200325 | 90 | 334 | 2.0 | 7.0 | 0.00 | 0.00 | 0.00 | 54 | 1014.1 |
| 20260831195821 | 91 | 304 | 2.0 | 3.0 | 0.00 | 0.00 | 0.00 | 53 | 1014.1 |
| 20260831195317 | 90 | 220 | 1.0 | 3.0 | 0.00 | 0.00 | 0.00 | 53 | 1013.8 |
| 20260831194812 | 90 | 330 | 2.0 | 6.0 | 0.00 | 0.00 | 0.00 | 56 | 1013.8 |
| 20260831194307 | 91 | 227 | 1.0 | 3.0 | 0.00 | 0.00 | 0.00 | 55 | 1013.6 |
| 20260831193806 | 91 | 184 | 0.0 | 2.0 | 0.00 | 0.00 | 0.00 | 56 | 1013.9 |
| 20260831193301 | 91 | 172 | 1.0 | 5.0 | 0.00 | 0.00 | 0.00 | 57 | 1013.8 |